When you browse on this site, cookies collect data to enhance your experience and personalize the content and advertising you see.
Visit our Privacy Policy to learn more. By continuing to use the site, you agree to this use of cookies and data.
  • în România
  • Lista ţărilor
  • Pe 7 zile
  • Temperatura apei
  • Meteo pe hartă
  • Widget-uri
  • user-avatar
    Intrare

    Meteo pe oră la Gitega

    Astăzi, 20 Ianuarie, Luni

    Timp Temperatura Precipitaţii Vânt Presiune Umiditate
    00:00 +16°C° 0 mm 0 m/s 623 mmHg 91%
    01:00 +16°C° 0 mm 1 m/s 623 mmHg 91%
    02:00 +16°C° 0 mm 1 m/s 622 mmHg 91%
    03:00 +16°C° 0 mm 1 m/s 622 mmHg 91%
    04:00 +16°C° 0 mm 1 m/s 622 mmHg 91%
    05:00 +16°C° 0 mm 1 m/s 622 mmHg 91%
    06:00 +18°C° 0 mm 1 m/s 623 mmHg 88%
    07:00 +19°C° 0 mm 1 m/s 624 mmHg 85%
    08:00 +21°C° 0 mm 1 m/s 625 mmHg 81%
    09:00 +23°C° 0.1 mm 1 m/s 625 mmHg 75%
    10:00 +25°C° 0.1 mm 1 m/s 625 mmHg 68%
    11:00 +26°C° 0.1 mm 2 m/s 625 mmHg 62%
    12:00 +26°C° 0.7 mm 2 m/s 625 mmHg 63%
    13:00 +26°C° 0.7 mm 2 m/s 624 mmHg 64%
    14:00 +26°C° 0.7 mm 2 m/s 624 mmHg 65%
    15:00 +26°C° 1.3 mm 1 m/s 623 mmHg 70%
    16:00 +25°C° 1.3 mm 1 m/s 622 mmHg 75%
    17:00 +24°C° 1.3 mm 1 m/s 622 mmHg 80%
    18:00 +21°C° 0.1 mm 0 m/s 622 mmHg 82%
    19:00 +19°C° 0.1 mm 0 m/s 622 mmHg 85%
    20:00 +18°C° 0.1 mm 0 m/s 622 mmHg 88%
    21:00 +18°C° 0.2 mm 0 m/s 623 mmHg 89%
    22:00 +18°C° 0.2 mm 0 m/s 623 mmHg 89%
    23:00 +18°C° 0.2 mm 0 m/s 623 mmHg 90%

    Mâine, 21 Ianuarie, Marţi

    Timp Temperatura Precipitaţii Vânt Presiune Umiditate
    00:00 +18°C° 0.5 mm 0 m/s 623 mmHg 90%
    01:00 +20°C° 0.5 mm 1 m/s 623 mmHg 91%
    02:00 +20°C° 0.5 mm 1 m/s 623 mmHg 91%
    03:00 +20°C° 0.4 mm 1 m/s 623 mmHg 91%
    04:00 +20°C° 0.4 mm 1 m/s 622 mmHg 91%
    05:00 +19°C° 0.4 mm 1 m/s 622 mmHg 91%
    06:00 +20°C° 0.2 mm 1 m/s 623 mmHg 91%
    07:00 +20°C° 0.2 mm 1 m/s 624 mmHg 90%
    08:00 +20°C° 0.2 mm 1 m/s 624 mmHg 90%
    09:00 +21°C° 0.4 mm 1 m/s 624 mmHg 87%
    10:00 +22°C° 0.4 mm 1 m/s 624 mmHg 84%
    11:00 +22°C° 0.4 mm 1 m/s 624 mmHg 81%
    12:00 +22°C° 0.2 mm 1 m/s 623 mmHg 80%
    13:00 +23°C° 0.2 mm 1 m/s 623 mmHg 79%
    14:00 +23°C° 0.2 mm 1 m/s 622 mmHg 78%
    15:00 +23°C° 0 mm 1 m/s 622 mmHg 77%
    16:00 +23°C° 0 mm 1 m/s 622 mmHg 77%
    17:00 +23°C° 0 mm 1 m/s 621 mmHg 76%
    18:00 +22°C° 0 mm 1 m/s 622 mmHg 75%
    19:00 +21°C° 0 mm 1 m/s 622 mmHg 75%
    20:00 +20°C° 0 mm 1 m/s 622 mmHg 74%
    21:00 +19°C° 0 mm 1 m/s 622 mmHg 74%
    22:00 +19°C° 0 mm 1 m/s 622 mmHg 74%
    23:00 +18°C° 0 mm 1 m/s 623 mmHg 74%

    Poimâine, 22 Ianuarie, Miercuri

    Timp Temperatura Precipitaţii Vânt Presiune Umiditate
    00:00 +18°C° 0 mm 1 m/s 622 mmHg 74%
    01:00 +18°C° 0 mm 1 m/s 622 mmHg 75%
    02:00 +18°C° 0 mm 1 m/s 622 mmHg 75%
    03:00 +18°C° 0 mm 1 m/s 622 mmHg 75%
    04:00 +18°C° 0 mm 1 m/s 622 mmHg 75%
    05:00 +18°C° 0 mm 1 m/s 622 mmHg 75%
    06:00 +19°C° 0 mm 1 m/s 622 mmHg 77%
    07:00 +17°C° 0 mm 0 m/s 623 mmHg 78%
    08:00 +18°C° 0 mm 0 m/s 623 mmHg 80%
    09:00 +18°C° 0 mm 0 m/s 623 mmHg 79%
    10:00 +21°C° 0 mm 1 m/s 623 mmHg 79%
    11:00 +21°C° 0 mm 1 m/s 623 mmHg 79%
    12:00 +23°C° 0 mm 1 m/s 623 mmHg 74%
    13:00 +24°C° 0 mm 1 m/s 623 mmHg 69%
    14:00 +25°C° 0 mm 2 m/s 622 mmHg 64%
    15:00 +25°C° 0.1 mm 1 m/s 622 mmHg 66%
    16:00 +25°C° 0.1 mm 1 m/s 622 mmHg 68%
    17:00 +25°C° 0.1 mm 1 m/s 622 mmHg 70%
    18:00 +23°C° 0.2 mm 1 m/s 622 mmHg 74%
    19:00 +22°C° 0.2 mm 1 m/s 622 mmHg 78%
    20:00 +18°C° 0.2 mm 0 m/s 622 mmHg 82%
    21:00 +20°C° 0.2 mm 1 m/s 623 mmHg 83%
    22:00 +20°C° 0.2 mm 1 m/s 623 mmHg 85%
    23:00 +19°C° 0.2 mm 1 m/s 623 mmHg 86%

    23 Ianuarie, Joi

    Timp Temperatura Precipitaţii Vânt Presiune Umiditate
    00:00 +19°C° 0.1 mm 1 m/s 623 mmHg 87%
    01:00 +19°C° 0.1 mm 1 m/s 622 mmHg 87%
    02:00 +18°C° 0.1 mm 1 m/s 622 mmHg 88%
    03:00 +18°C° 0 mm 1 m/s 622 mmHg 89%
    04:00 +18°C° 0 mm 1 m/s 622 mmHg 89%
    05:00 +16°C° 0 mm 1 m/s 622 mmHg 90%
    06:00 +18°C° 0 mm 1 m/s 622 mmHg 88%
    07:00 +17°C° 0 mm 0 m/s 623 mmHg 86%
    08:00 +18°C° 0 mm 0 m/s 624 mmHg 84%
    09:00 +22°C° 0.1 mm 1 m/s 624 mmHg 78%
    10:00 +23°C° 0.1 mm 1 m/s 624 mmHg 71%
    11:00 +25°C° 0.1 mm 2 m/s 625 mmHg 65%
    12:00 +25°C° 0.3 mm 2 m/s 624 mmHg 64%
    13:00 +26°C° 0.3 mm 2 m/s 623 mmHg 63%
    14:00 +26°C° 0.3 mm 2 m/s 623 mmHg 62%
    15:00 +25°C° 0.7 mm 1 m/s 622 mmHg 68%
    16:00 +24°C° 0.7 mm 1 m/s 622 mmHg 74%
    17:00 +21°C° 0.7 mm 0 m/s 621 mmHg 81%
    18:00 +20°C° 0.3 mm 0 m/s 622 mmHg 83%
    19:00 +21°C° 0.3 mm 1 m/s 622 mmHg 85%
    20:00 +20°C° 0.3 mm 1 m/s 623 mmHg 87%
    21:00 +20°C° 0.8 mm 1 m/s 623 mmHg 87%
    22:00 +20°C° 0.8 mm 1 m/s 623 mmHg 88%
    23:00 +20°C° 0.8 mm 1 m/s 623 mmHg 88%

    24 Ianuarie, Vineri

    Timp Temperatura Precipitaţii Vânt Presiune Umiditate
    00:00 +19°C° 0.9 mm 1 m/s 623 mmHg 89%
    01:00 +19°C° 0.9 mm 1 m/s 623 mmHg 89%
    02:00 +19°C° 0.9 mm 1 m/s 623 mmHg 90%
    03:00 +19°C° 0.3 mm 1 m/s 623 mmHg 90%
    04:00 +17°C° 0.3 mm 0 m/s 623 mmHg 90%
    05:00 +17°C° 0.3 mm 0 m/s 623 mmHg 90%
    06:00 +17°C° 0.1 mm 0 m/s 623 mmHg 90%
    07:00 +17°C° 0.1 mm 0 m/s 624 mmHg 89%
    08:00 +20°C° 0.1 mm 1 m/s 624 mmHg 88%
    09:00 +21°C° 0.2 mm 1 m/s 624 mmHg 84%
    10:00 +22°C° 0.2 mm 1 m/s 624 mmHg 80%
    11:00 +23°C° 0.2 mm 1 m/s 625 mmHg 75%
    12:00 +24°C° 0.1 mm 1 m/s 624 mmHg 70%
    13:00 +25°C° 0.1 mm 1 m/s 624 mmHg 65%
    14:00 +25°C° 0.1 mm 1 m/s 623 mmHg 60%
    15:00 +25°C° 0.2 mm 1 m/s 623 mmHg 65%
    16:00 +24°C° 0.2 mm 2 m/s 622 mmHg 70%
    17:00 +24°C° 0.2 mm 2 m/s 622 mmHg 75%
    18:00 +22°C° 0.1 mm 1 m/s 622 mmHg 79%
    19:00 +21°C° 0.1 mm 1 m/s 622 mmHg 83%
    20:00 +17°C° 0.1 mm 0 m/s 622 mmHg 87%
    21:00 +17°C° 0 mm 0 m/s 622 mmHg 87%
    22:00 +17°C° 0 mm 0 m/s 623 mmHg 87%
    23:00 +19°C° 0 mm 1 m/s 623 mmHg 87%

    25 Ianuarie, Sâmbătă

    Timp Temperatura Precipitaţii Vânt Presiune Umiditate
    00:00 +18°C° 0 mm 1 m/s 623 mmHg 88%
    01:00 +16°C° 0 mm 0 m/s 622 mmHg 88%
    02:00 +16°C° 0 mm 0 m/s 622 mmHg 88%
    03:00 +16°C° 0 mm 0 m/s 622 mmHg 88%
    04:00 +16°C° 0 mm 0 m/s 622 mmHg 88%
    05:00 +18°C° 0 mm 1 m/s 623 mmHg 87%
    06:00 +17°C° 0 mm 0 m/s 623 mmHg 87%
    07:00 +17°C° 0 mm 0 m/s 624 mmHg 86%
    08:00 +18°C° 0 mm 0 m/s 624 mmHg 86%
    09:00 +19°C° 0.2 mm 0 m/s 624 mmHg 79%
    10:00 +23°C° 0.2 mm 1 m/s 625 mmHg 72%
    11:00 +25°C° 0.2 mm 1 m/s 625 mmHg 65%
    12:00 +25°C° 0 mm 1 m/s 624 mmHg 61%
    13:00 +26°C° 0 mm 2 m/s 624 mmHg 56%
    14:00 +27°C° 0 mm 2 m/s 623 mmHg 52%
    15:00 +26°C° 0 mm 2 m/s 623 mmHg 58%
    16:00 +25°C° 0 mm 2 m/s 622 mmHg 65%
    17:00 +25°C° 0 mm 2 m/s 622 mmHg 71%
    18:00 +23°C° 0 mm 2 m/s 622 mmHg 76%
    19:00 +21°C° 0 mm 1 m/s 622 mmHg 80%
    20:00 +19°C° 0 mm 1 m/s 622 mmHg 84%
    21:00 +19°C° 0 mm 1 m/s 622 mmHg 85%
    22:00 +19°C° 0 mm 1 m/s 623 mmHg 86%
    23:00 +18°C° 0 mm 1 m/s 623 mmHg 86%
    Arată mai mult